Overview Statistics Trail Chart Weather Telemetry Raw packets
 

This is the latest recevied weather packets stored in our database for station/object KD4EG. If no packets are shown the sender has not sent any weather packets the latest 10 day(s).

<< 99 100 101 102 103 104 105 >>
Time Temp. Humidity Pressure Rain* Wind** Luminosity Snow
1787871899 26.67° C 70% 1016.8 hPa 0 mm - 52 W/m² -
1787871594 26.67° C 69% 1016.9 hPa 0 mm - 63 W/m² -
1787871290 26.67° C 74% 1016.6 hPa 0 mm - 75 W/m² -
1787870984 26.67° C 74% 1016.8 hPa 0 mm - 89 W/m² -
1787870684 27.22° C 73% 1016.7 hPa 0 mm - 117 W/m² -
1787870378 26.67° C 75% 1016.5 hPa 0 mm - 119 W/m² -
1787870074 26.11° C 75% 1016.5 hPa 0 mm - 81 W/m² -
1787869772 26.11° C 77% 1016.5 hPa 0 mm - 102 W/m² -
1787869468 26.67° C 77% 1016.5 hPa 0 mm - 60 W/m² -
1787869162 26.67° C 75% 1016.6 hPa 0 mm - 76 W/m² -
1787868861 26.67° C 73% 1016.5 hPa 0 mm - 85 W/m² -
1787868560 27.78° C 70% 1016.5 hPa 0 mm - 102 W/m² -
1787868259 27.22° C 70% 1016.3 hPa 0 mm - 205 W/m² -
1787867954 27.22° C 71% 1016.3 hPa 0 mm - 207 W/m² -
1787867650 27.22° C 72% 1016.4 hPa 0 mm - 97 W/m² -
1787867344 27.22° C 73% 1016.4 hPa 0 mm - 252 W/m² -
1787867041 27.22° C 74% 1016.3 hPa 0 mm - 138 W/m² -
1787866735 27.78° C 70% 1016.2 hPa 0 mm - 120 W/m² -
1787866434 27.78° C 70% 1016.2 hPa 0 mm - 251 W/m² -
1787866129 27.78° C 70% 1016 hPa 0 mm - 216 W/m² -
1787865828 27.78° C 70% 1016.2 hPa 0 mm - 278 W/m² -
1787865524 27.78° C 71% 1016.5 hPa 0 mm - 298 W/m² -
1787865219 27.78° C 71% 1016.4 hPa 0 mm - 314 W/m² -
1787864916 28.33° C 69% 1016.5 hPa 0 mm - 366 W/m² -
1787864610 27.78° C 69% 1016.6 hPa 0 mm - 379 W/m² -

* Rain latest hour (hover to see other rain measurements)
** Current wind speed in m/s (hover to see current wind gust speed)